Location: Newark
(37.0133°S, 81.3511°E)
Time: 21:11:25
(UTC+00:00)

N. Korean satellite - Pass Details

Date: 02 February 2020
Orbit: 456 x 505 km, 97.2° (Epoch: 19 February)

Event Time Altitude Azimuth Distance (km) Brightness Sun altitude
Rises 23:04:31 0° 33° (NNE) 2,601 10.3 -9.3°
Reaches altitude 10° 23:06:43 10° 43° (NE) 1,723 9.5 -8.9°
Maximum altitude 23:10:04 33° 107° (ESE) 883 8.7 -8.3°
Drops below altitude 10° 23:13:26 10° 171° (S) 1,733 9.9 -7.7°
Sets 23:15:40 0° 180° (S) 2,619 10.7 -7.3°
